Location: *
(57.8420°S, 159.8600°W)
Time: 12:19:51
(UTC+00:00)

Cosmos 1356 - Pass Details

Date: 18 May 2021
Orbit: 437 x 441 km, 81.1° (Epoch: 22 June)

Event Time Altitude Azimuth Distance (km) Brightness Sun altitude
Rises 03:51:02 0° 7° (N) 2,441 7.3 -10.7°
Reaches altitude 10° 03:53:10 10° 15° (NNE) 1,579 6.2 -11.0°
Maximum altitude 03:56:22 37° 83° (E) 723 4.0 -11.4°
Enters shadow 03:59:19 12° 149° (SSE) 1,484 5.6 -11.8°
